[[{"header":{"parameterUnit":"m.s-1","parameterCategory":1,"la1":30.2991,"la2":30.254,"lo1":-89.0895,"lo2":-89.0444,"dy":0.0017,"dx":0.0017,"nx":28,"ny":28,"refTime":"2023-09-14T21:00:00:Z","depth":0,"parameterNumber":2,"parameterNumberName":"U-component_of_WINDS"},"data":[0,0,0,0,0,0,0,0,0,0,0,0,0,0,0,0,0,0,0,0,0,0,0,0,0,0,0,0,0,0,0,0,0,0,0,0,0,0,0,0,0,0,0,0,0,0,0,0,0,0,0,0,0,0,0,0,0,0,0.0893,0.0894,0,0.098,0.0981,0.0982,0.1033,0.1034,0.1034,0.1034,0.1124,0.1126,0.1129,0,0,0,0,0,0,0,0,0,0,0,0,0,0.0772,0.0773,0.0893,0.0894,0.0895,0.098,0.0981,0.0982,0.1033,0.1034,0.1034,0.1034,0.1124,0.1126,0.1129,0,0,0,0,0,0,0,0,0,0,0,0,0,0.0838,0.0774,0.0893,0.0931,0.0935,0.0979,0.0981,0.0982,0.1033,0.1034,0.1034,0.1034,0.1123,0.1126,0.1129,0.1143,0,0,0.1139,0.1141,0,0,0,0,0,0,0,0,0.0834,0.0842,0.0924,0.0928,0.0933,0.0996,0.0971,0.1036,0.1033,0.0996,0.1034,0.1034,0.1081,0.1088,0.1104,0.1147,0.1151,0.1139,0.1141,0.1143,0.1144,0,0,0,0,0,0,0,0.0829,0.0839,0.0927,0.0925,0.0931,0.0944,0.0953,0.0984,0.1036,0.0999,0.1003,0.1013,0.1084,0.11,0.1106,0.1152,0.1139,0.1142,0.1144,0.1146,0.1209,0.1209,0,0,0,0,0,0,0.0819,0.0835,0.0925,0.093,0.0883,0.0945,0.0956,0.0975,0.1036,0.1045,0.1012,0.1015,0.1095,0.1102,0.111,0.1128,0.1143,0.1146,0.1148,0.121,0.1209,0.1209,0,0,0,0,0,0,0.0816,0.0826,0.0921,0.0883,0.0896,0.0947,0.0968,0.0977,0.0994,0.1045,0.1055,0.102,0.1095,0.1105,0.1134,0.1132,0.1147,0.115,0.121,0.1209,0.1209,0.1167,0,0,0,0,0,0,0.0812,0.0825,0.0831,0.0883,0.0898,0.0943,0.0968,0.0978,0.0999,0.1003,0.1055,0.1064,0.1096,0.1128,0.1137,0.1137,0.1153,0.121,0.121,0.1209,0.1168,0.1165,0.1162,0,0,0,0,0,0.0808,0.0816,0.0831,0.0841,0.0906,0.0943,0.0952,0.0989,0.0999,0.1005,0.1038,0.1062,0.1131,0.1131,0.1141,0.1142,0.1211,0.121,0.1209,0.117,0.1166,0.1162,0,0,0,0,0,0,0.0763,0.0823,0.0841,0.0866,0.0899,0.0952,0.0961,0.0983,0.1015,0.1017,0.1062,0.1073,0.1097,0.1123,0.1121,0.1158,0.1173,0.1175,0.114,0.1136,0.1133,0.1126,0.1156,0,0,0,0,0,0.0755,0.078,0.0832,0.0849,0.0865,0.091,0.0927,0.0953,0.0989,0.1003,0.1039,0.1073,0.1102,0.1121,0.1151,0.1172,0.1184,0.1178,0.1174,0.1172,0.1172,0.1184,0.1182,0.1207,0.1207,0.1207,0,0,0.0741,0.0777,0.079,0.0841,0.087,0.0894,0.0921,0.0946,0.0965,0.1007,0.1036,0.1063,0.1104,0.1129,0.1142,0.1151,0.1168,0.1171,0.1168,0.117,0.1183,0.1181,0.1178,0.1206,0.1206,0.1207,0,0,0.0728,0.0758,0.0775,0.0803,0.0845,0.0875,0.0879,0.0928,0.0947,0.0977,0.1009,0.1031,0.1081,0.1109,0.113,0.1125,0.1148,0.1133,0.1116,0.1127,0.1125,0.1123,0.1121,0.1119,0.1134,0.1134,0.1133,0,0.0705,0.0743,0.0781,0.0804,0.0825,0.0863,0.0881,0.0906,0.0956,0.097,0.0979,0.1042,0.1072,0.1103,0.1102,0.1118,0.1123,0.1128,0.1122,0.1121,0.112,0.1118,0.1117,0.1131,0.1132,0.1132,0.1132,0,0.0712,0.0737,0.0746,0.0793,0.0815,0.0835,0.0876,0.0894,0.0916,0.0945,0.0974,0.1012,0.1049,0.1059,0.1082,0.1092,0.1097,0.1114,0.113,0.1115,0.1114,0.1113,0.1128,0.1129,0.113,0.113,0,0,0.0673,0.0739,0.0742,0.0763,0.0812,0.0833,0.0854,0.089,0.0904,0.0937,0.0955,0.0996,0.1011,0.1035,0.1061,0.1071,0.1063,0.1087,0.1088,0.108,0.1076,0.1062,0.1061,0.1079,0.1079,0.1079,0.1072,0,0.0666,0.0706,0.074,0.0767,0.0791,0.0827,0.0846,0.0878,0.0904,0.0928,0.0958,0.0986,0.1004,0.1018,0.103,0.1062,0.1063,0.1063,0.1096,0.1097,0.1084,0.106,0.1047,0.1039,0.1072,0.1072,0.1072,0,0.0663,0.0694,0.0723,0.0768,0.078,0.0796,0.0831,0.0853,0.089,0.0909,0.0933,0.0961,0.0985,0.0998,0.1031,0.103,0.1046,0.1063,0.1064,0.1068,0.1083,0.1063,0.1037,0.1035,0.1072,0.1072,0.1072,0,0.0631,0.0679,0.0703,0.072,0.0774,0.0784,0.0807,0.0844,0.0863,0.0893,0.0906,0.0939,0.0957,0.0982,0.1018,0.1025,0.1046,0.1064,0.1062,0.1061,0.1065,0.1064,0.104,0.1075,0.1075,0.1076,0.1076,0,0.0619,0.0635,0.0689,0.0703,0.0722,0.0761,0.0779,0.0805,0.0837,0.0857,0.0891,0.0908,0.0954,0.0977,0.1005,0.1027,0.1036,0.1051,0.1058,0.1048,0.1045,0.1058,0.1059,0.1075,0.1075,0.1075,0.1075,0,0.0586,0.0623,0.065,0.0699,0.0711,0.0723,0.0764,0.0779,0.0807,0.0831,0.0839,0.0884,0.0912,0.095,0.0991,0.101,0.1028,0.104,0.1015,0.102,0.1015,0.1015,0.0998,0.0998,0.1034,0.1033,0.1033,0,0.0576,0.0589,0.0639,0.0654,0.0675,0.07,0.0719,0.0758,0.0777,0.0819,0.0828,0.0859,0.0886,0.0931,0.0966,0.0997,0.1009,0.1001,0.1014,0.1003,0.1008,0.1007,0.1008,0.0998,0.0997,0.0997,0.0997,0,0.0554,0.0571,0.0597,0.0629,0.0651,0.0679,0.0708,0.0718,0.0763,0.0782,0.0811,0.0832,0.0873,0.0903,0.0939,0.0963,0.0987,0.0992,0.0993,0.0982,0.0967,0.0974,0.1006,0.0992,0.0993,0.0993,0.0993,0.0993,0.0532,0.0545,0.0581,0.0609,0.0634,0.066,0.0676,0.0706,0.0731,0.0767,0.0788,0.0816,0.0852,0.0901,0.0924,0.0946,0.0956,0.0958,0.0958,0.0958,0.0953,0.0964,0.0953,0.0953,0.0953,0.0953,0.0954,0,0.0511,0.0536,0.0561,0.0599,0.0621,0.0641,0.0674,0.069,0.0715,0.0745,0.0771,0.0804,0.0833,0.087,0.0902,0.0912,0.0924,0.0919,0.0918,0.0923,0.0944,0.0939,0.0909,0.0909,0.0909,0.0909,0.0909,0.0909,0.0502,0.0525,0.0545,0.058,0.0605,0.0633,0.0649,0.0673,0.0698,0.0733,0.0757,0.0781,0.0814,0.0848,0.0875,0.0885,0.0895,0.0886,0.09,0.0918,0.0922,0.0926,0.0922,0.0888,0.0888,0.0877,0.0877,0.0877]},{"header":{"parameterUnit":"m.s-1","parameterCategory":1,"la1":30.2991,"la2":30.254,"lo1":-89.0895,"lo2":-89.0444,"dy":0.0017,"dx":0.0017,"nx":28,"ny":28,"refTime":"2023-09-14T21:00:00:Z","depth":0,"parameterNumber":3,"parameterNumberName":"V-component_of_WINDS"},"data":[0,0,0,0,0,0,0,0,0,0,0,0,0,0,0,0,0,0,0,0,0,0,0,0,0,0,0,0,0,0,0,0,0,0,0,0,0,0,0,0,0,0,0,0,0,0,0,0,0,0,0,0,0,0,0,0,0,0,2.9032,2.9032,0,2.904,2.9041,2.9041,2.9057,2.9058,2.9058,2.9058,2.9065,2.9065,2.9064,0,0,0,0,0,0,0,0,0,0,0,0,0,2.9025,2.9025,2.9032,2.9032,2.9032,2.904,2.9041,2.9041,2.9057,2.9058,2.9058,2.9058,2.9065,2.9065,2.9064,0,0,0,0,0,0,0,0,0,0,0,0,0,2.903,2.9025,2.9032,2.9041,2.9042,2.904,2.9041,2.9041,2.9057,2.9058,2.9058,2.9059,2.9065,2.9065,2.9064,2.9053,0,0,2.9064,2.9064,0,0,0,0,0,0,0,0,2.903,2.9031,2.904,2.9041,2.9042,2.9048,2.9041,2.9045,2.9057,2.9051,2.9058,2.9059,2.9059,2.9059,2.9059,2.9054,2.9054,2.9064,2.9064,2.9064,2.9063,0,0,0,0,0,0,0,2.903,2.903,2.9035,2.904,2.9041,2.9044,2.9045,2.9042,2.9052,2.9052,2.9053,2.9054,2.9059,2.906,2.906,2.9054,2.9064,2.9064,2.9063,2.9063,2.9036,2.9035,0,0,0,0,0,0,2.9028,2.903,2.9035,2.9035,2.9037,2.9043,2.9045,2.9046,2.9052,2.9054,2.9054,2.9055,2.906,2.906,2.906,2.9045,2.9064,2.9063,2.9063,2.9036,2.9036,2.9035,0,0,0,0,0,0,2.9028,2.9029,2.9035,2.9033,2.9034,2.9043,2.9044,2.9046,2.9046,2.9054,2.9055,2.9052,2.906,2.906,2.9054,2.9046,2.9063,2.9063,2.9037,2.9036,2.9035,2.9017,0,0,0,0,0,0,2.9028,2.9029,2.9026,2.9033,2.9034,2.903,2.9043,2.9045,2.9046,2.9047,2.9053,2.9054,2.9061,2.9054,2.9054,2.9046,2.9063,2.9038,2.9037,2.9036,2.9018,2.9015,2.9013,0,0,0,0,0,2.9028,2.902,2.9025,2.9026,2.9031,2.9029,2.903,2.9038,2.9045,2.9041,2.9046,2.9054,2.9047,2.9054,2.9053,2.9045,2.9038,2.9037,2.9036,2.9019,2.9016,2.9013,0,0,0,0,0,0,2.9012,2.9022,2.9027,2.9022,2.9025,2.9032,2.9028,2.9035,2.9035,2.9036,2.9046,2.9047,2.9039,2.9042,2.9049,2.9033,2.9044,2.9042,2.9031,2.9028,2.9026,2.9025,2.9063,0,0,0,0,0,2.9008,2.9007,2.9015,2.901,2.9011,2.9019,2.9019,2.9025,2.9028,2.9029,2.9033,2.9034,2.9032,2.903,2.9029,2.9019,2.9019,2.9013,2.901,2.9008,2.9006,2.8998,2.8994,2.9031,2.9031,2.9031,0,0,2.8999,2.9004,2.9003,2.9006,2.9009,2.9006,2.902,2.9017,2.9015,2.9028,2.9022,2.9025,2.9027,2.9018,2.9014,2.902,2.8996,2.9006,2.9004,2.9004,2.8996,2.8992,2.8989,2.903,2.903,2.903,0,0,2.8982,2.8987,2.8982,2.8984,2.8988,2.8993,2.8991,2.8997,2.8999,2.8994,2.9003,2.8999,2.8996,2.8997,2.8996,2.8976,2.8983,2.8976,2.8961,2.8953,2.895,2.8948,2.8938,2.8935,2.8974,2.8974,2.8974,0,2.8971,2.8968,2.8978,2.8974,2.8974,2.8986,2.8979,2.8981,2.8983,2.8982,2.8989,2.8983,2.8986,2.8976,2.897,2.8971,2.8967,2.8975,2.895,2.8948,2.8945,2.8936,2.8933,2.8973,2.8973,2.8973,2.8973,0,2.8953,2.8951,2.8946,2.8948,2.8948,2.8943,2.895,2.8948,2.8953,2.8957,2.8949,2.8952,2.895,2.8948,2.8954,2.8938,2.8941,2.8949,2.896,2.8941,2.8932,2.8929,2.8971,2.8972,2.8972,2.8972,0,0,2.8927,2.8933,2.8931,2.8931,2.8935,2.8933,2.8927,2.8925,2.8922,2.8923,2.8917,2.8913,2.8919,2.8919,2.8924,2.8917,2.8897,2.8925,2.8925,2.8918,2.8877,2.887,2.8866,2.8902,2.8901,2.8901,2.8876,0,2.891,2.8901,2.8908,2.8897,2.8894,2.8904,2.8898,2.8899,2.8901,2.8898,2.89,2.8896,2.8906,2.8906,2.8899,2.8901,2.8889,2.8903,2.8894,2.8894,2.8892,2.8862,2.8855,2.8831,2.8873,2.8872,2.8872,0,2.8889,2.8888,2.8877,2.8879,2.8878,2.8873,2.887,2.8867,2.8867,2.8869,2.8867,2.8874,2.8866,2.8877,2.8865,2.8874,2.8871,2.8871,2.887,2.8868,2.8881,2.8857,2.8824,2.8819,2.8867,2.8867,2.8868,0,2.8869,2.8865,2.8857,2.8857,2.886,2.8855,2.8856,2.8857,2.8854,2.8851,2.8849,2.8846,2.8843,2.884,2.8844,2.8852,2.8829,2.8842,2.8829,2.8829,2.8823,2.8823,2.8787,2.8824,2.8824,2.8824,2.8824,0,2.8848,2.884,2.8848,2.8843,2.8833,2.884,2.883,2.8832,2.8831,2.8825,2.8834,2.8827,2.8834,2.8828,2.8831,2.8818,2.8818,2.8817,2.8818,2.8816,2.8815,2.8813,2.8814,2.8823,2.8823,2.8823,2.8824,0,2.8824,2.8829,2.882,2.8823,2.8823,2.8816,2.8817,2.8811,2.8814,2.8806,2.8804,2.8808,2.88,2.8804,2.8797,2.8798,2.8782,2.8785,2.8782,2.8782,2.8768,2.8768,2.8727,2.8721,2.8764,2.8763,2.8763,0,2.881,2.8804,2.8805,2.8802,2.8802,2.8796,2.8793,2.8799,2.8796,2.8793,2.8787,2.878,2.8775,2.8763,2.8763,2.8757,2.8759,2.8745,2.8758,2.8755,2.8756,2.8756,2.8754,2.8742,2.8742,2.8741,2.8741,0,2.8783,2.8785,2.8782,2.8777,2.8774,2.8771,2.8768,2.8765,2.877,2.8765,2.8758,2.8754,2.8745,2.8737,2.8731,2.873,2.8735,2.8737,2.8733,2.873,2.8727,2.8726,2.8772,2.8737,2.8738,2.8738,2.8738,2.8738,2.8763,2.8756,2.8756,2.875,2.8748,2.8745,2.8739,2.874,2.8734,2.8728,2.8731,2.8722,2.8718,2.871,2.8708,2.8699,2.8704,2.87,2.8698,2.8696,2.8693,2.8729,2.8698,2.8698,2.8698,2.8698,2.8698,0,2.8735,2.8734,2.8729,2.8725,2.8719,2.8725,2.8722,2.8717,2.8708,2.8705,2.8699,2.8689,2.868,2.868,2.8671,2.8664,2.8666,2.8661,2.8661,2.866,2.869,2.8693,2.866,2.866,2.866,2.866,2.866,2.866,2.872,2.8709,2.871,2.8697,2.8696,2.8687,2.8684,2.868,2.8677,2.8665,2.8658,2.8658,2.8655,2.8646,2.8637,2.8637,2.8632,2.8626,2.8627,2.8655,2.8658,2.8662,2.8665,2.8626,2.8626,2.8597,2.8597,2.8597]}]]